sat.trackr.live / text

‹ back to catalog

YAOGAN-35 05C

NORAD 53763 · 2022-109D

PAYLOAD ACTIVE UNKNOWN

§ Identity

Operator
Country
PRC
Launch date
2022-09-06
Launch site
XICLF
Launch vehicle
Mass (kg)
RCS (m²)

External: N2YO · Heavens-Above · Gunter

§ Orbital elements

Epoch: 2026-09-20T22:27:27.567072Z

Period
94.45 min
Inclination
34.9903°
Eccentricity
0.0002560
Mean motion
15.24657939 rev/d
Perigee alt
490.1 km
Apogee alt
493.6 km
Semi-major
6,869.9 km
B*
1.8914e-4
RAAN
113.7665°
Arg perigee
20.2271°
Mean anomaly
339.8545°
Rev number
22,499

§ Raw data

YAOGAN-35 05C1 53763U 22109D   26263.93573573  .00004753  00000+0  18914-3 0  99932 53763  34.9903 113.7665 0002560  20.2271 339.8545 15.24657939224994

JSON: /api/v1/satellites/53763 · /tle

For live sub-satellite position, see the globe view (requires WebGL).

§ Visibility from observer

Set your observer location to see the next 7 days of passes ≥ 10°. The values pass through the URL so the page stays shareable.

No JS? Fill the form by hand. The geolocation button needs JavaScript.